CZ-6A DEB, 54473

Orbit data source: Space-Track

CZ-6A DEB, 54473 is space debris in SSO originally from a launch on Fri, 11 Nov 2022 UTC launched from the Taiyaun Space Center, China (TSC). Debris objects in space refer to the collection of defunct objects orbiting the Earth. Examples of debris include non-operational satellites, rocket bodies, and fragments generated from explosions, collisions, or faulty payload assembly.

Loading next visibility...
Identifier
54473, 2022-151GZ
Orbit
SSO
Country
Flag of CNCN / PRC
Related business
Manufacturer
SAST
Mission
Spacecraft
Bus & Motor
Unknown
Mass
Unknown
Launch date (UTC)
2022-11-11 (3 years ago)
Launch vehicle
Unknown
Launch site
Taiyaun Space Center, China (TSC)
Object type
Payload
Rocket body
Debris
Shape & HBR
Unknown shape, 0.7 m
Radar Cross Section
Medium (>0.1 m² and <1 m²)

Expand to show TLE details & history
Last TLE update: 12 hours ago

TLE from 12 hours ago
0 CZ-6A DEB
1 54473U 22151GZ  25352.51635062  .00000334  00000-0  18334-3 0  9991
2 54473  98.8561  14.3223 0032668   8.6491 351.5240 14.18149714160186
Epoch: 2025-12-18T12:23Z
TLE epoch observation values (Epoch: 2025-12-18T12:23:32.693Z)
Latitude
-0.00005°
Longitude
101.06535°
Altitude
811.226 km
Speed
7.46 km/s
True Right ascension
00h 57m 17s
True Declination
0° 00' 00"
Sunlit
Object was in daylight at epoch
Visualization orbit readout
Latitude
Unknown
Longitude
Unknown
Altitude
Unknown
Speed
Unknown
Apparent Right ascension
Unknown
Apparent Declination
Unknown
Sunlit
N/A
Visualization observer readout
Local Sidereal Time
23:01:40
Azimuth
Unknown
Elevation
Unknown
Doppler factor
Unknown
Orbital elements
Apogee altitude
852.329 km
Perigee altitude
805.242 km
Semi-major axis
7,206.922 km
Eccentricity
0.00327
Inclination
98.8561°
RAAN
14.3223°
Arg. of periapsis
8.6491°
True anomaly
351.4686°
Mean anomaly
351.524°
Eccentric anomaly
351.49632°
Mean motion
3.54747 °/min
Orbital period
101.48 mins
BSTAR
0.00018334
Loading maneuver chart data...
Computing Atmospheric mass density...

Documentation

Showing up to 5 results
|